Hourly Weather Kiti

Today, 29 July, Thursday

Time Temperature Precipitation Wind Pressure Humidity
00:00 +33°C° 0 mm 3 mps 750 mmHg 22%
01:00 +33°C° 0 mm 3 mps 750 mmHg 23%
02:00 +32°C° 0 mm 4 mps 750 mmHg 24%
03:00 +32°C° 0 mm 4 mps 750 mmHg 27%
04:00 +30°C° 0 mm 4 mps 750 mmHg 31%
05:00 +29°C° 0 mm 4 mps 750 mmHg 34%
06:00 +32°C° 0 mm 5 mps 750 mmHg 33%
07:00 +34°C° 0 mm 5 mps 750 mmHg 31%
08:00 +35°C° 0 mm 6 mps 750 mmHg 30%
09:00 +36°C° 0 mm 6 mps 750 mmHg 26%
10:00 +37°C° 0 mm 5 mps 751 mmHg 22%
11:00 +38°C° 0 mm 4 mps 751 mmHg 18%
12:00 +40°C° 0 mm 4 mps 750 mmHg 16%
13:00 +41°C° 0 mm 4 mps 750 mmHg 15%
14:00 +41°C° 0 mm 4 mps 750 mmHg 13%
15:00 +41°C° 0 mm 4 mps 750 mmHg 13%
16:00 +42°C° 0 mm 5 mps 749 mmHg 14%
17:00 +42°C° 0 mm 5 mps 749 mmHg 14%
18:00 +39°C° 0 mm 5 mps 749 mmHg 20%
19:00 +36°C° 0 mm 5 mps 749 mmHg 26%
20:00 +33°C° 0 mm 5 mps 750 mmHg 32%
21:00 +33°C° 0 mm 5 mps 750 mmHg 30%
22:00 +33°C° 0 mm 4 mps 749 mmHg 28%
23:00 +33°C° 0 mm 3 mps 749 mmHg 27%

Tomorrow, 30 July, Friday

Time Temperature Precipitation Wind Pressure Humidity
00:00 +31°C° 0 mm 3 mps 749 mmHg 27%
01:00 +31°C° 0 mm 2 mps 749 mmHg 27%
02:00 +31°C° 0 mm 2 mps 749 mmHg 26%
03:00 +30°C° 0 mm 2 mps 749 mmHg 31%
04:00 +29°C° 0 mm 2 mps 749 mmHg 36%
05:00 +29°C° 0 mm 2 mps 749 mmHg 40%
06:00 +31°C° 0 mm 2 mps 749 mmHg 35%
07:00 +35°C° 0 mm 2 mps 749 mmHg 29%
08:00 +37°C° 0 mm 2 mps 750 mmHg 23%
09:00 +38°C° 0 mm 2 mps 750 mmHg 21%
10:00 +39°C° 0 mm 3 mps 750 mmHg 19%
11:00 +40°C° 0 mm 3 mps 750 mmHg 17%
12:00 +41°C° 0 mm 4 mps 750 mmHg 18%
13:00 +42°C° 0 mm 4 mps 750 mmHg 18%
14:00 +42°C° 0 mm 4 mps 749 mmHg 19%
15:00 +42°C° 0 mm 5 mps 749 mmHg 18%
16:00 +42°C° 0 mm 5 mps 749 mmHg 17%
17:00 +42°C° 0 mm 6 mps 748 mmHg 17%
18:00 +39°C° 0 mm 5 mps 748 mmHg 25%
19:00 +36°C° 0 mm 5 mps 749 mmHg 34%
20:00 +33°C° 0 mm 5 mps 749 mmHg 42%
21:00 +33°C° 0 mm 4 mps 749 mmHg 40%
22:00 +34°C° 0 mm 3 mps 749 mmHg 37%
23:00 +34°C° 0 mm 3 mps 749 mmHg 34%

Day after tomorrow, 31 July, Saturday

Time Temperature Precipitation Wind Pressure Humidity
00:00 +32°C° 0 mm 2 mps 749 mmHg 36%
01:00 +31°C° 0 mm 2 mps 748 mmHg 37%
02:00 +30°C° 0 mm 2 mps 748 mmHg 38%
03:00 +30°C° 0 mm 2 mps 748 mmHg 39%
04:00 +29°C° 0 mm 2 mps 748 mmHg 40%
05:00 +29°C° 0 mm 2 mps 749 mmHg 41%
06:00 +31°C° 0 mm 2 mps 749 mmHg 38%
07:00 +34°C° 0 mm 2 mps 749 mmHg 35%
08:00 +35°C° 0 mm 1 mps 749 mmHg 32%
09:00 +38°C° 0 mm 2 mps 749 mmHg 28%
10:00 +39°C° 0 mm 2 mps 749 mmHg 24%
11:00 +42°C° 0 mm 3 mps 749 mmHg 19%
12:00 +43°C° 0 mm 3 mps 749 mmHg 17%
13:00 +43°C° 0 mm 3 mps 749 mmHg 14%
14:00 +44°C° 0 mm 4 mps 749 mmHg 12%
15:00 +44°C° 0 mm 4 mps 749 mmHg 13%
16:00 +43°C° 0 mm 5 mps 749 mmHg 14%
17:00 +43°C° 0 mm 5 mps 748 mmHg 15%
18:00 +41°C° 0 mm 5 mps 749 mmHg 20%
19:00 +39°C° 0 mm 5 mps 749 mmHg 25%
20:00 +35°C° 0 mm 4 mps 749 mmHg 30%
21:00 +35°C° 0 mm 4 mps 749 mmHg 35%
22:00 +34°C° 0 mm 3 mps 749 mmHg 40%
23:00 +33°C° 0 mm 3 mps 749 mmHg 45%

1 August, Sunday

Time Temperature Precipitation Wind Pressure Humidity
00:00 +32°C° 0 mm 2 mps 749 mmHg 42%
01:00 +31°C° 0 mm 2 mps 749 mmHg 39%
02:00 +31°C° 0 mm 1 mps 749 mmHg 36%
03:00 +31°C° 0 mm 1 mps 749 mmHg 36%
04:00 +30°C° 0 mm 2 mps 749 mmHg 36%
05:00 +30°C° 0 mm 2 mps 749 mmHg 36%
06:00 +32°C° 0 mm 2 mps 750 mmHg 33%
07:00 +35°C° 0 mm 2 mps 750 mmHg 30%
08:00 +37°C° 0 mm 2 mps 750 mmHg 27%
09:00 +39°C° 0 mm 2 mps 750 mmHg 24%
10:00 +42°C° 0 mm 3 mps 750 mmHg 21%
11:00 +43°C° 0 mm 4 mps 750 mmHg 17%
12:00 +44°C° 0 mm 4 mps 750 mmHg 18%
13:00 +44°C° 0 mm 4 mps 749 mmHg 18%
14:00 +44°C° 0 mm 4 mps 749 mmHg 18%
15:00 +43°C° 0 mm 5 mps 749 mmHg 19%
16:00 +43°C° 0 mm 5 mps 749 mmHg 20%
17:00 +42°C° 0 mm 6 mps 749 mmHg 22%
18:00 +40°C° 0 mm 5 mps 749 mmHg 29%
19:00 +37°C° 0 mm 5 mps 749 mmHg 36%
20:00 +35°C° 0 mm 4 mps 749 mmHg 43%
21:00 +35°C° 0 mm 3 mps 749 mmHg 41%
22:00 +34°C° 0 mm 3 mps 749 mmHg 40%
23:00 +34°C° 0 mm 2 mps 749 mmHg 38%

2 August, Monday

Time Temperature Precipitation Wind Pressure Humidity
00:00 +34°C° 0 mm 2 mps 749 mmHg 34%
01:00 +34°C° 0 mm 2 mps 749 mmHg 30%
02:00 +34°C° 0 mm 2 mps 749 mmHg 25%
03:00 +32°C° 0 mm 2 mps 749 mmHg 27%
04:00 +31°C° 0 mm 2 mps 749 mmHg 29%
05:00 +31°C° 0 mm 1 mps 749 mmHg 31%
06:00 +33°C° 0 mm 1 mps 749 mmHg 30%
07:00 +35°C° 0 mm 1 mps 750 mmHg 29%
08:00 +37°C° 0 mm 1 mps 750 mmHg 28%
09:00 +39°C° 0 mm 2 mps 750 mmHg 25%
10:00 +42°C° 0 mm 3 mps 750 mmHg 21%
11:00 +43°C° 0 mm 3 mps 750 mmHg 18%
12:00 +44°C° 0 mm 4 mps 750 mmHg 17%
13:00 +44°C° 0 mm 4 mps 749 mmHg 17%
14:00 +45°C° 0 mm 4 mps 749 mmHg 16%
15:00 +45°C° 0 mm 5 mps 749 mmHg 17%
16:00 +45°C° 0 mm 5 mps 749 mmHg 18%
17:00 +44°C° 0 mm 6 mps 749 mmHg 19%
18:00 +41°C° 0 mm 5 mps 749 mmHg 24%
19:00 +38°C° 0 mm 4 mps 749 mmHg 29%
20:00 +36°C° 0 mm 4 mps 749 mmHg 35%
21:00 +35°C° 0 mm 3 mps 749 mmHg 34%
22:00 +35°C° 0 mm 3 mps 749 mmHg 33%
23:00 +35°C° 0 mm 2 mps 749 mmHg 32%

3 August, Tuesday

Time Temperature Precipitation Wind Pressure Humidity
00:00 +34°C° 0 mm 2 mps 749 mmHg 32%
01:00 +34°C° 0 mm 2 mps 749 mmHg 31%
02:00 +32°C° 0 mm 1 mps 749 mmHg 31%
03:00 +32°C° 0 mm 1 mps 749 mmHg 31%
04:00 +31°C° 0 mm 1 mps 750 mmHg 31%
05:00 +31°C° 0 mm 2 mps 750 mmHg 31%
06:00 +33°C° 0 mm 1 mps 750 mmHg 29%
07:00 +35°C° 0 mm 1 mps 750 mmHg 28%
08:00 +37°C° 0 mm 1 mps 751 mmHg 27%
09:00 +39°C° 0 mm 1 mps 751 mmHg 24%
10:00 +41°C° 0 mm 2 mps 751 mmHg 20%
11:00 +44°C° 0 mm 3 mps 751 mmHg 17%
12:00 +44°C° 0 mm 4 mps 751 mmHg 17%
13:00 +44°C° 0 mm 4 mps 750 mmHg 17%
14:00 +46°C° 0 mm 5 mps 750 mmHg 17%
15:00 +45°C° 0 mm 5 mps 750 mmHg 18%
16:00 +45°C° 0 mm 5 mps 750 mmHg 19%
17:00 +44°C° 0 mm 6 mps 750 mmHg 20%
18:00 +41°C° 0 mm 5 mps 750 mmHg 27%
19:00 +38°C° 0 mm 4 mps 750 mmHg 33%
20:00 +35°C° 0 mm 4 mps 751 mmHg 40%
21:00 +35°C° 0 mm 3 mps 751 mmHg 40%
22:00 +35°C° 0 mm 2 mps 751 mmHg 39%
23:00 +33°C° 0 mm 1 mps 751 mmHg 39%
Show more